Погода в Паулу-Афонсу

Бразилия     9°25′50″S   38°12′40″W
темп.,
°C
ветер,
м/с
пор.,
м/с
влажн.,
%
обл.,
%
осадки,
мм/ч
давл.,
гПа
погр.,
м
26 февраля, пт
пт2600:00+23юв38790 0.0 1011623
03:00+22юв27881 0.0 1010435
06:00+21ююв279229 0.0 1011345
09:00+28вюв355535 0.0 10121068
12:00+33юв333497 0.0 10102059
15:00+35юв332880 0.0 10072566
18:00+31вюв253696 0.0 1008248
21:00+25вюв5107098 0.6 1011860
27 февраля, сб
сб2700:00+23юв388287 0.8 1012606
03:00+22юв268966 0.8 1010309
06:00+22юв269098 0.0 1012240
09:00+28в345999 0.0 1013977
12:00+34вюв34366 0.0 10102109
15:00+34юв343046 0.0 10072544
18:00+30юв5942100 0.0 1008753
21:00+25юв496783 0.3 1011836
28 февраля, вс
вс2800:00+23юв498269 0.1 1011712
03:00+22юв279273 0.1 1010337
06:00+21ююв2795100 0.1 1011341
09:00+28вюв456093 0.2 10121209
12:00+34вюв463488 0.0 10092160
15:00+35вюв462945 0.0 10062652
18:00+30вюв4103620 0.0 1007543
21:00+25юв5106533 0.0 1009853
1 марта, пн
пн100:00+23юв388016 0.0 1010633
03:00+21юв37918 0.0 1009347
06:00+21ююв279429 0.0 1010347
09:00+28вюв466040 0.1 10111148
12:00+31вюв454795 0.1 10091604
15:00+33юв563957 0.1 10062189
18:00+27юв4106069 0.1 10071010
21:00+25юв5107242 0.1 1010918
2 марта, вт
вт200:00+24вюв598071 0.0 1011884
03:00+22юв498868 0.1 1010656
06:00+22юв498569 0.2 1011690
09:00+27вюв465649 0.2 10131163
12:00+33вюв453012 0.0 10112055
15:00+35юв462456 0.0 10082524
18:00+30юв5103080 0.0 1009672
21:00+24юв4105847 0.0 1012800